Weather History for K4M9 - March, 2014

Change the Weather History Date:

Tuesday, March 18, 2014

  Actual Average (KARG) Record (KARG)
Temperature  
Mean Temperature 46 °F -  
Max Temperature 59 °F 56 °F 77 °F (2004)
Min Temperature 32 °F 39 °F 32 °F (2001)
Degree Days  
Heating Degree Days 20    
Moisture  
Dew Point 39 °F    
Average Humidity 82    
Maximum Humidity 100    
Minimum Humidity 59    
Precipitation  
Precipitation 0.00 in - - ()
Sea Level Pressure  
Sea Level Pressure 29.80 in    
Wind  
Wind Speed 8 mph (SSE)    
Max Wind Speed 23 mph    
Max Gust Speed 29 mph    
Visibility 8 miles    
Events      
Averages and records for this station are not official NWS values.
T = Trace of Precipitation, MM = Missing Value Source: NWS Daily Summary

Daily Weather History Graph

Daily Weather History Graph

Search for Another Location

Airport or City:

Trip Planner

Search our weather history database for the weather conditions in past years. The results will help you decide how hot, cold, wet, or windy it might be!

Date:

Astronomy

Mar. 18, 2014 Rise Set
Actual Time 7:09 AM CDT 7:12 PM CDT
Civil Twilight 6:43 AM CDT 7:38 PM CDT
Nautical Twilight 6:13 AM CDT 8:08 PM CDT
Astronomical Twilight 5:43 AM CDT 8:38 PM CDT
Moon 9:25 PM CDT (3/18) 8:02 AM CDT (3/18)
Length of Visible Light 12h 54m
Length of Day
12h 03m
Waning Gibbous, 96% of the Moon is Illuminated
Mar 18
Waning Gibbous
Mar 23
Last Quarter
Mar 30
New
Apr 7
First Quarter
Apr 15
Full

Hourly Weather History & Observations

Time (CDT) Temp. Windchill Dew Point Humidity Pressure Visibility Wind Dir Wind Speed Gust Speed Precip Events Conditions
12:15 AM 37.4 °F 33.8 °F 35.6 °F 93% 29.85 in 7.0 mi South 4.6 mph - N/A   Clear
12:35 AM 35.6 °F 30.7 °F 35.6 °F 100% 29.84 in 6.0 mi South 5.8 mph - N/A   Clear
12:55 AM 37.4 °F 32.8 °F 35.6 °F 93% 29.83 in 7.0 mi SSE 5.8 mph - N/A   Clear
1:15 AM 37.4 °F 34.9 °F 35.6 °F 93% 29.84 in 7.0 mi SSE 3.5 mph - N/A   Clear
1:35 AM 35.6 °F - 35.6 °F 100% 29.84 in 2.0 mi Calm Calm - N/A   Clear
1:55 AM 35.6 °F 32.8 °F 35.6 °F 100% 29.84 in 7.0 mi SSW 3.5 mph - N/A   Clear
2:15 AM 35.6 °F 32.8 °F 35.6 °F 100% 29.85 in 2.5 mi SSW 3.5 mph - N/A   Clear
2:35 AM 35.6 °F 32.8 °F 35.6 °F 100% 29.85 in 7.0 mi WSW 3.5 mph - N/A   Clear
2:55 AM 35.6 °F - 35.6 °F 100% 29.86 in 6.0 mi Calm Calm - N/A   Clear
3:15 AM 35.6 °F - 35.6 °F 100% 29.85 in 7.0 mi Calm Calm - N/A   Clear
3:35 AM 35.6 °F - 33.8 °F 93% 29.84 in 7.0 mi Calm Calm - N/A   Clear
3:55 AM 33.8 °F 30.8 °F 33.8 °F 100% 29.83 in 4.0 mi ESE 3.5 mph - N/A   Clear
4:15 AM 32.0 °F 26.4 °F 32.0 °F 100% 29.82 in 3.0 mi ESE 5.8 mph - N/A   Clear
4:35 AM 32.0 °F 25.6 °F 32.0 °F 100% 29.82 in 3.0 mi ESE 6.9 mph - N/A   Clear
4:55 AM 33.8 °F 29.6 °F 33.8 °F 100% 29.82 in 3.0 mi SE 4.6 mph - N/A   Clear
5:15 AM 33.8 °F 30.8 °F 33.8 °F 100% 29.82 in 3.0 mi SE 3.5 mph - N/A   Clear
5:35 AM 32.0 °F 27.5 °F 32.0 °F 100% 29.82 in 3.0 mi SE 4.6 mph - N/A   Clear
5:55 AM 32.0 °F 27.5 °F 32.0 °F 100% 29.81 in 3.0 mi ESE 4.6 mph - N/A   Clear
6:15 AM 32.0 °F 27.5 °F 32.0 °F 100% 29.82 in 3.0 mi SE 4.6 mph - N/A   Clear
6:35 AM 32.0 °F 25.6 °F 32.0 °F 100% 29.81 in 3.0 mi SE 6.9 mph - N/A   Clear
6:55 AM 32.0 °F 25.6 °F 32.0 °F 100% 29.82 in 4.0 mi SSE 6.9 mph - N/A   Clear
7:15 AM 32.0 °F 26.4 °F 32.0 °F 100% 29.83 in 3.0 mi SSE 5.8 mph - N/A   Clear
7:35 AM 33.8 °F 28.6 °F 33.8 °F 100% 29.84 in 4.0 mi South 5.8 mph - N/A   Clear
7:55 AM 33.8 °F 28.6 °F 33.8 °F 100% 29.84 in 4.0 mi SSE 5.8 mph - N/A   Clear
8:15 AM 35.6 °F 30.7 °F 35.6 °F 100% 29.85 in 5.0 mi SSE 5.8 mph - N/A   Clear
8:35 AM 37.4 °F 31.4 °F 37.4 °F 100% 29.86 in 5.0 mi South 8.1 mph - N/A   Clear
8:55 AM 39.2 °F 32.5 °F 37.4 °F 93% 29.86 in 7.0 mi SSE 10.4 mph - N/A   Clear
9:15 AM 39.2 °F 32.0 °F 37.4 °F 93% 29.88 in 8.0 mi South 11.5 mph 17.3 mph N/A   Clear
9:35 AM 41.0 °F 33.1 °F 37.4 °F 87% 29.89 in 9.0 mi South 15.0 mph - N/A   Clear
9:55 AM 41.0 °F 32.8 °F 37.4 °F 87% 29.89 in 9.0 mi South 16.1 mph 21.9 mph N/A   Partly Cloudy
10:15 AM 41.0 °F 31.9 °F 37.4 °F 87% 29.89 in 10.0 mi South 19.6 mph 24.2 mph N/A   Unknown
10:35 AM 42.8 °F 34.8 °F 37.4 °F 81% 29.90 in 10.0 mi South 17.3 mph 25.3 mph N/A   Unknown
10:55 AM 44.6 °F 38.1 °F 37.4 °F 76% 29.90 in 10.0 mi South 13.8 mph - N/A   Mostly Cloudy
11:15 AM 46.4 °F 39.2 °F 39.2 °F 76% 29.89 in 10.0 mi South 18.4 mph 25.3 mph N/A   Overcast
11:35 AM 46.4 °F 40.1 °F 39.2 °F 76% 29.88 in 10.0 mi South 15.0 mph 21.9 mph N/A   Unknown
11:55 AM 48.2 °F - 39.2 °F 71% 29.87 in 10.0 mi South 13.8 mph 19.6 mph N/A   Mostly Cloudy
12:15 PM 48.2 °F - 39.2 °F 71% 29.86 in 10.0 mi South 11.5 mph - N/A   Unknown
12:35 PM 48.2 °F - 39.2 °F 71% 29.85 in 10.0 mi SSE 15.0 mph 20.7 mph N/A   Scattered Clouds
12:55 PM 50.0 °F - 41.0 °F 71% 29.84 in 10.0 mi SSE 12.7 mph 19.6 mph N/A   Scattered Clouds
1:15 PM 50.0 °F - 41.0 °F 71% 29.83 in 10.0 mi SSE 16.1 mph 23.0 mph N/A   Unknown
1:35 PM 51.8 °F - 41.0 °F 67% 29.81 in 10.0 mi SSE 12.7 mph 21.9 mph N/A   Partly Cloudy
1:55 PM 51.8 °F - 41.0 °F 67% 29.80 in 10.0 mi SE 18.4 mph - N/A   Partly Cloudy
2:15 PM 53.6 °F - 42.8 °F 67% 29.79 in 10.0 mi SE 17.3 mph 23.0 mph N/A   Partly Cloudy
2:35 PM 53.6 °F - 41.0 °F 62% 29.78 in 10.0 mi SSE 17.3 mph 23.0 mph N/A   Clear
2:55 PM 55.4 °F - 44.6 °F 67% 29.76 in 10.0 mi South 16.1 mph - N/A   Clear
3:15 PM 55.4 °F - 44.6 °F 67% 29.74 in 10.0 mi SSE 16.1 mph - N/A   Clear
3:35 PM 55.4 °F - 44.6 °F 67% 29.72 in 10.0 mi SE 19.6 mph 25.3 mph N/A   Clear
3:55 PM 55.4 °F - 44.6 °F 67% 29.71 in 10.0 mi SSE 21.9 mph 27.6 mph N/A   Clear
4:15 PM 55.4 °F - 44.6 °F 67% 29.70 in 10.0 mi SSE 16.1 mph 27.6 mph N/A   Clear
4:35 PM 57.2 °F - 44.6 °F 63% 29.70 in 10.0 mi SSE 18.4 mph 24.2 mph N/A   Clear
4:55 PM 57.2 °F - 44.6 °F 63% 29.68 in 10.0 mi SSE 19.6 mph 25.3 mph N/A   Clear
5:15 PM 59.0 °F - 44.6 °F 59% 29.68 in 10.0 mi South 23.0 mph 27.6 mph N/A   Clear
5:35 PM 59.0 °F - 44.6 °F 59% 29.68 in 10.0 mi SSE 19.6 mph 28.8 mph N/A   Clear
5:55 PM 59.0 °F - 44.6 °F 59% 29.68 in 10.0 mi South 15.0 mph 25.3 mph N/A   Clear
6:15 PM 57.2 °F - 44.6 °F 63% 29.69 in 10.0 mi South 13.8 mph - N/A   Clear
6:35 PM 57.2 °F - 44.6 °F 63% 29.71 in 10.0 mi SSW 12.7 mph 18.4 mph N/A   Clear
6:55 PM 57.2 °F - 44.6 °F 63% 29.71 in 10.0 mi South 15.0 mph 24.2 mph N/A   Clear
7:15 PM 55.4 °F - 44.6 °F 67% 29.73 in 10.0 mi SSW 15.0 mph - N/A   Clear
7:35 PM 53.6 °F - 44.6 °F 72% 29.74 in 10.0 mi South 11.5 mph - N/A   Clear
7:55 PM 51.8 °F - 44.6 °F 76% 29.75 in 10.0 mi South 8.1 mph - N/A   Clear
8:15 PM 53.6 °F - 44.6 °F 72% 29.74 in 10.0 mi South 8.1 mph - N/A   Clear
8:35 PM 50.0 °F - 44.6 °F 82% 29.74 in 10.0 mi South 10.4 mph - N/A   Clear
8:55 PM 50.0 °F - 44.6 °F 82% 29.75 in 10.0 mi South 8.1 mph - N/A   Clear
9:15 PM 50.0 °F - 44.6 °F 82% 29.75 in 10.0 mi SSE 11.5 mph - N/A   Clear
9:35 PM 51.8 °F - 44.6 °F 76% 29.76 in 10.0 mi South 12.7 mph - N/A   Clear
9:55 PM 51.8 °F - 44.6 °F 76% 29.77 in 10.0 mi South 10.4 mph - N/A   Clear
10:15 PM 53.6 °F - 44.6 °F 72% 29.77 in 10.0 mi South 12.7 mph - N/A   Clear
10:35 PM 53.6 °F - 44.6 °F 72% 29.76 in 10.0 mi South 12.7 mph - N/A   Clear
10:55 PM 53.6 °F - 44.6 °F 72% 29.76 in 10.0 mi South 11.5 mph - N/A   Clear
11:15 PM 53.6 °F - 44.6 °F 72% 29.76 in 10.0 mi South 13.8 mph 19.6 mph N/A   Clear
11:35 PM 53.6 °F - 44.6 °F 72% 29.75 in 10.0 mi South 12.7 mph 19.6 mph N/A   Clear
11:55 PM 53.6 °F - 44.6 °F 72% 29.76 in 10.0 mi South 12.7 mph 18.4 mph N/A   Clear